Charles B. Wheeler Downtown Airport
KMKC : now visible

Airfield :











YOU CAN JOIN US ON...

 
LOGIN :

Register | Disclaimer

   EN    FR    IT 

 









Legend :    VFR   Marginal VFR   IFR   Intensive IFR   Very Intensive IFR
Visi :
Ceiling :
>= 8 km
>= 3000ft
5 to 8 km
1000 to 3000 ft
1500m to 5 km
500 to 1000 ft
800 to 1500m
200 to 500 ft
< 800m
< 200 ft
Symbols :   Thunderstorms  Fog  Heavy snow  Heavy precipitations  Wind > 20 kt






- Airport Elevation : 759 ft
- IATA code : MKC


KMKC - Charles B. Wheeler Downtown

CURRENT METAR :
  • 050754Z 11004KT 10SM OVC026 09/01 A2994 RMK AO2 SLP137 T00890006

EXPIRED METARs :
  • 050654Z 11006KT 10SM OVC029 08/01 A2997 RMK AO2 SLP150 T00830006
  • 050642Z 09006KT 10SM OVC029 08/01 A2998 RMK AO2 T00830006
  • 050554Z 11006KT 10SM OVC036 08/00 A3001 RMK AO2 SLP163 T00830000 10083 20072 401060017 58026

TAF KMKC
Valid from the 05 at 06:00 until the 06 at 06:00 UTC


050520Z 0506/0606 14009KT P6SM SCT020 BKN035
FM050700 16008KT P6SM OVC020
FM051400 20012KT P6SM OVC009
FM051800 24013G23KT P6SM BKN100
FM060000 33012G25KT P6SM SCT250
KZKC FIR / North America



MET'MAP, your aeronautical weather chart ! - Copyright ORBIFLY December 2007 - Disclaimer

ORBIFLY MET'MAP TEAM :

Programming & Development : Alexandra Zaïnal
Concept & original design : Baudouin d'Aumeries
Assistance for programming : Marc-Olivier Méhu
Technical & hardware support : Manuel Goepfert

Contact : metmap@orbifly.com




SOURCES & CREDITS :

   NOAA       Earth
Advisory